This demonstration page uses our WeatherBlox Daily Observations layout. Learn more.

Left ArrowRight Arrow

36.17497, -115.13722

Hourly Observations for June 22, 2021

Temp ( °F °C ) Dew Point ( °F °C ) Humidity (%) Winds ( mph kmh ) Pressure ( in mb ) Visibility ( mi km ) Precip ( " mm )
12:53 am 00:53 Clear 94 34.4 29 -1.7 10 10 SW 22 35 29.70 1006 10 16 N/A
1:53 am 01:53 Clear 92 33.3 29 -1.7 10 10 SSW 17 28 29.72 1006 10 16 N/A
2:53 am 02:53 Clear 91 32.8 30 -1.1 11 11 SW 12 19 29.73 1007 10 16 N/A
3:53 am 03:53 Clear 91 32.8 31 -0.6 12 12 SSW 15 24 29.73 1007 10 16 N/A
4:53 am 04:53 Clear 91 32.8 32 undefined 12 12 SSW 10 17 29.74 1007 10 16 N/A
5:53 am 05:53 Sunny 90 32.2 32 undefined 13 13 S 9 15 29.76 1008 10 16 N/A
6:53 am 06:53 Sunny 91 32.8 32 undefined 12 12 SSW 10 17 29.77 1008 10 16 N/A
7:53 am 07:53 Sunny 93 33.9 32 undefined 11 11 S 12 19 29.79 1009 10 16 N/A
8:53 am 08:53 Sunny 96 35.6 32 undefined 10 10 S 15 24 29.78 1009 10 16 N/A
9:53 am 09:53 Sunny 100 37.8 29 -1.7 8 8 SSW 17 28 29.77 1008 10 16 N/A
10:53 am 10:53 Sunny 98 36.7 26 -3.3 8 8 SSW 20 31 29.78 1009 10 16 N/A
11:53 am 11:53 Sunny 99 37.2 28 -2.2 8 8 SW 13 20 29.78 1008 10 16 N/A
12:53 pm 12:53 Sunny 100 37.8 30 -1.1 8 8 SW 18 30 29.77 1008 10 16 N/A
1:53 pm 13:53 Sunny 104 40 29 -1.7 7 7 SW 18 30 29.75 1008 10 16 N/A
2:53 pm 14:53 Sunny 104 40 29 -1.7 7 7 WSW 23 37 29.73 1007 10 16 N/A
3:53 pm 15:53 Sunny 103 39.4 30 -1.1 8 8 SW 15 24 29.72 1007 10 16 N/A
4:53 pm 16:53 Sunny 102 38.9 31 -0.6 8 8 SSW 24 39 29.71 1006 10 16 N/A
5:53 pm 17:53 Sunny 100 37.8 30 -1.1 8 8 S 16 26 29.71 1006 10 16 N/A
6:53 pm 18:53 Sunny 100 37.8 32 undefined 9 9 SSW 23 37 29.70 1006 10 16 N/A
7:53 pm 19:53 Sunny 99 37.2 33 0.6 10 10 SW 15 24 29.71 1006 10 16 N/A
8:53 pm 20:53 Clear 98 36.7 36 2.2 11 11 SSW 14 22 29.72 1007 10 16 N/A
9:53 pm 21:53 Clear 96 35.6 33 0.6 11 11 SW 18 30 29.74 1007 10 16 N/A
10:53 pm 22:53 Clear 96 35.6 29 -1.7 9 9 WSW 16 26 29.74 1007 10 16 N/A
11:53 pm 23:53 Clear 95 35 30 -1.1 10 10 WSW 14 22 29.74 1007 10 16 N/A

Powered by AerisWeather